TimeAKDT,TemperatureF,Dew PointF,Humidity,Sea Level PressureIn,VisibilityMPH,Wind Direction,Wind SpeedMPH,Gust SpeedMPH,PrecipitationIn,Events,Conditions,WindDirDegrees,DateUTC
12:12 AM,23.0,17.6,80,30.09,4.0,NNW,3.5,-,0.00,Snow,Light Snow,330,2013-03-17 08:12:00
12:54 AM,21.9,18.0,85,30.10,7.0,West,4.6,-,0.00,Snow,Light Snow,280,2013-03-17 08:54:00
1:54 AM,21.0,18.0,88,30.11,10.0,Calm,Calm,-,0.00,,Overcast,0,2013-03-17 09:54:00
2:54 AM,21.0,16.0,81,30.12,10.0,North,3.5,-,N/A,,Scattered Clouds,350,2013-03-17 10:54:00
3:54 AM,21.0,10.9,65,30.13,10.0,NNW,6.9,-,N/A,,Partly Cloudy,330,2013-03-17 11:54:00
4:54 AM,19.9,9.0,62,30.13,10.0,NNW,4.6,-,N/A,,Clear,340,2013-03-17 12:54:00
5:54 AM,19.9,8.1,60,30.14,10.0,NNW,8.1,-,N/A,,Partly Cloudy,340,2013-03-17 13:54:00
6:54 AM,19.9,8.1,60,30.14,10.0,NNW,5.8,-,N/A,,Clear,340,2013-03-17 14:54:00
7:54 AM,19.9,6.1,55,30.15,10.0,NNW,8.1,-,N/A,,Partly Cloudy,330,2013-03-17 15:54:00
8:54 AM,19.9,6.1,55,30.15,10.0,NW,10.4,-,N/A,,Clear,310,2013-03-17 16:54:00
9:54 AM,21.0,7.0,55,30.15,10.0,NW,10.4,-,N/A,,Scattered Clouds,310,2013-03-17 17:54:00
10:54 AM,21.9,8.1,55,30.16,10.0,NW,8.1,-,N/A,,Clear,310,2013-03-17 18:54:00
11:54 AM,24.1,5.0,44,30.16,10.0,NW,11.5,-,N/A,,Scattered Clouds,310,2013-03-17 19:54:00
12:54 PM,25.0,7.0,46,30.16,10.0,WNW,13.8,-,N/A,,Mostly Cloudy,290,2013-03-17 20:54:00
1:54 PM,26.1,7.0,44,30.15,10.0,WNW,12.7,-,N/A,,Partly Cloudy,290,2013-03-17 21:54:00
2:54 PM,27.0,9.0,47,30.14,10.0,WNW,11.5,-,N/A,,Mostly Cloudy,290,2013-03-17 22:54:00
3:54 PM,27.0,7.0,43,30.12,10.0,WNW,11.5,-,N/A,,Mostly Cloudy,290,2013-03-17 23:54:00
4:54 PM,27.0,8.1,45,30.11,10.0,West,12.7,-,N/A,,Overcast,280,2013-03-18 00:54:00
5:54 PM,27.0,5.0,39,30.10,10.0,NW,8.1,-,N/A,,Partly Cloudy,310,2013-03-18 01:54:00
6:54 PM,25.0,5.0,43,30.09,10.0,NW,4.6,-,N/A,,Clear,320,2013-03-18 02:54:00
7:54 PM,21.9,7.0,53,30.10,10.0,NW,3.5,-,N/A,,Clear,310,2013-03-18 03:54:00
8:54 PM,23.0,3.9,44,30.09,10.0,NW,10.4,17.3,N/A,,Clear,320,2013-03-18 04:54:00
9:54 PM,21.0,3.9,48,30.09,10.0,NW,11.5,17.3,N/A,,Clear,320,2013-03-18 05:54:00
10:54 PM,19.9,3.9,50,30.09,10.0,NW,11.5,-,N/A,,Clear,320,2013-03-18 06:54:00
11:54 PM,18.0,3.0,52,30.09,10.0,NW,10.4,-,N/A,,Clear,310,2013-03-18 07:54:00